This demonstration page uses our WeatherBlox Daily Observations layout. Learn more.

Left ArrowRight Arrow

39.01783, -85.05884

Hourly Observations for April 20, 2020

Temp ( °F °C ) Dew Point ( °F °C ) Humidity (%) Winds ( mph kmh ) Pressure ( in mb ) Visibility ( mi km ) Precip ( " mm )
12:52 am 00:52 Cloudy 46 7.8 38 3.3 73 73 N N/A 29.76 1008 10 16 N/A
1:52 am 01:52 Cloudy 47 8.3 39 3.9 74 74 NNW 9 15 29.74 1007 10 16 N/A
2:52 am 02:52 Mostly Cloudy 47 8.3 37 2.8 69 69 N 7 11 29.73 1007 10 16 N/A
3:52 am 03:52 Mostly Cloudy 44 6.7 36 2.2 73 73 N 8 13 29.72 1006 10 16 N/A
4:52 am 04:52 Mostly Cloudy 42 5.6 35 1.7 76 76 N 9 15 29.71 1006 10 16 N/A
5:52 am 05:52 Mostly Cloudy 41 5 33 0.6 73 73 N 9 15 29.72 1006 10 16 N/A
6:52 am 06:52 Mostly Clear 40 4.4 32 undefined 73 73 N 7 11 29.74 1007 10 16 N/A
7:52 am 07:52 Mostly Sunny 41 5 34 1.1 76 76 N 8 13 29.76 1008 10 16 N/A
8:52 am 08:52 Mostly Sunny 46 7.8 36 2.2 68 68 NE 7 11 29.77 1008 10 16 N/A
9:52 am 09:52 Sunny 49 9.4 37 2.8 64 64 NE 3 6 29.78 1008 10 16 N/A
10:52 am 10:52 Sunny 53 11.7 38 3.3 57 57 N N/A 29.78 1009 10 16 N/A
11:52 am 11:52 Sunny 57 13.9 36 2.2 45 45 N N/A 29.79 1009 10 16 N/A
12:52 pm 12:52 Sunny 59 15 29 -1.7 32 32 N 10 17 29.78 1009 10 16 N/A
1:52 pm 13:52 Mostly Sunny 61 16.1 30 -1.1 31 31 VRB 7 11 29.77 1008 10 16 N/A
2:52 pm 14:52 Mostly Sunny 63 17.2 28 -2.2 27 27 NNW 10 17 29.75 1007 10 16 N/A
3:52 pm 15:52 Mostly Sunny 64 17.8 27 -2.8 25 25 W 16 26 29.73 1007 10 16 N/A
4:52 pm 16:52 Mostly Sunny 65 18.3 30 -1.1 27 27 W 9 15 29.72 1006 10 16 N/A
5:52 pm 17:52 Mostly Sunny 64 17.8 29 -1.7 27 27 W 13 20 29.70 1006 10 16 N/A
6:52 pm 18:52 Partly Cloudy 62 16.7 29 -1.7 29 29 WSW 12 19 29.70 1006 10 16 N/A
7:52 pm 19:52 Mostly Cloudy 61 16.1 30 -1.1 31 31 WSW 8 13 29.69 1005 10 16 N/A
8:52 pm 20:52 Mostly Clear 59 15 30 -1.1 33 33 WSW 8 13 29.69 1005 10 16 N/A
9:52 pm 21:52 Mostly Clear 57 13.9 31 -0.6 37 37 WSW 8 13 29.71 1006 10 16 N/A
10:52 pm 22:52 Mostly Cloudy with Light Rain 57 13.9 34 1.1 42 42 WSW 8 13 29.71 1006 10 16 0.00 0.00
11:52 pm 23:52 Mostly Cloudy 55 12.8 35 1.7 47 47 SW 8 13 29.69 1005 10 16 0.00 0.00

Powered by AerisWeather